Regional Weather Roundup
Issued by NWS

Home | Current Version | Previous Version | Graphics & Text | Print | Product List | Glossary On
Versions: 1 2 3 4 5 6 7 8 9 10 11 12 13 14 15 16 17 18 19 20 21 22 23 24 25 26 27 28 29 30 31 32 33 34 35 36 37 38 39 40 41 42 43 44 45 46 47 48 49 50
000
ASUS43 KMPX 280101
RWRMN
WEATHER ROUNDUP FOR MINNESOTA
NATIONAL WEATHER SERVICE TWIN CITIES/CHANHASSEN MN
800 PM CDT MON JUL 27 2015


NOTE: "FAIR" INDICATES FEW OR NO CLOUDS BELOW 12,000 FEET WITH NO
SIGNIFICANT WEATHER AND/OR OBSTRUCTIONS TO VISIBILITY. N/A MEANS
CURRENT SKY AND/OR WEATHER CONDITIONS ARE NOT AVAILABLE.

MNZ060>063-068>070-280200-
   Twin Cities Metro

CITY           SKY/WX    TMP DP  RH WIND       PRES   REMARKS
TWIN CITIES    PTCLDY    83  72  69 SE8       29.89S
ST PAUL        PTCLDY    81  73  76 SE10      29.89S
CRYSTAL        PTCLDY    84  71  65 SE10      29.88S
BLAINE         PTCLDY    84  72  65 SE10      29.90S
LAKEVILLE      CLEAR     79  72  78 SE5       29.90R
EDEN PRAIRIE   CLEAR     82  71  69 SE9       29.88S
SOUTH ST PAUL  CLEAR     83  71  67 SE6       29.90S
LAKE ELMO      FAIR      81  72  74 SE7       29.92S
$$
MNZ001>005-007-008-013>017-022>024-027-028-280200-
   Northwest Minnesota

CITY           SKY/WX    TMP DP  RH WIND       PRES   REMARKS
BEMIDJI        PTCLDY    80  70  71 SE9       29.86F
HALLOCK        SUNNY     82  72  69 SE9       29.77R
ROSEAU         CLEAR     82  73  74 SE9       29.82S
WARROAD        CLEAR     84  73  70 SE6       29.83S HX  91
THIEF RVR FALL PTCLDY    81  72  74 SE8       29.80S
CROOKSTON      CLEAR     82  73  74 SE8       29.77F
FOSSTON        PTCLDY    81  70  69 CALM      29.83S
DETROIT LAKES  CLEAR     82  68  61 S12G18    29.84R
MOORHEAD       PTCLDY    82  72  69 SE10      29.77F
PARK RAPIDS    CLEAR     84  68  58 SE14      29.86S
MAHNOMEN       FAIR      83  70  64 SE6       29.82S
$$
MNZ006-009>011-018-025>026-280200-
   North Central Minnesota

CITY           SKY/WX    TMP DP  RH WIND       PRES   REMARKS
BAUDETTE       PTCLDY    82  67  60 S10       29.85S
FLAG ISLAND    CLEAR     82  70  65 S7        29.83S
INTL FALLS     CLEAR     82  66  58 SE3       29.88S
WASKISH        CLEAR     81  68  65 SE5       29.86S
BIG FORK       PTCLDY    82  66  57 SE3       29.90S
LONGVILLE      CLEAR     81  70  69 SE5       29.89S
GRAND RAPIDS   PTCLDY    81  66  61 SE8       29.91R
CRANE LAKE     CLEAR     82  63  51 SE1       29.92R
ORR            CLEAR     81  63  54 CALM      29.89S
COOK           CLEAR     82  64  54 SE6       29.92S
WALKER         FAIR      81  70  68 SE7       29.86F
$$
MNZ012-019>021-037-280200-
   Northeast Minnesota

CITY           SKY/WX    TMP DP  RH WIND       PRES   REMARKS
DULUTH         PTCLDY    78  64  61 E8        29.95S
ELY            CLEAR     82  52  34 S6        29.95S
HIBBING        CLEAR     81  65  58 SE7       29.92S
EVELETH        CLEAR     81  61  50 SE6       29.94S
DULUTH HARBOR  PTCLDY    72  68  88 NE8       29.93R
TWO HARBORS    CLEAR     81  66  61 E5        29.93S
SILVER BAY     CLEAR     77  63  61 NE6       29.94S
GRAND MARAIS     N/A     68  64  87 CALM      29.93S
G MARAIS ARPRT CLEAR     72  57  60 CALM      30.02S
$$
MNZ029>031-032-039>041-046>048-054>057-064-280200-
   West Central Minnesota

CITY           SKY/WX    TMP DP  RH WIND       PRES   REMARKS
FERGUS FALLS   PTCLDY    82  72  69 SE13G22   29.78S
WHEATON        CLEAR     79  72  78 SE13      29.79R
MORRIS         CLEAR     82  72  69 SE15      29.80S
ALEXANDRIA     PTCLDY    80  72  76 SE15      29.86F
ELBOW LAKE     FAIR      81  73  76 SE12G18   29.81S
WADENA         CLEAR     82  70  65 SE14      29.85S
GLENWOOD       CLEAR     81  72  74 SE8       29.86S
APPLETON       CLEAR     82  72  69 SE9G16    29.80R
BENSON         CLEAR     82  72  69 S12G20    29.82R
ORTONVILLE     CLEAR     82  72  69 SE15      29.78S
MADISON        CLEAR     81  70  69 SE12      29.80R
WILLMAR        FAIR      82  73  74 SE9       29.85F
$$
MNZ033>034-036-042>043-049>051-058-059-280200-
   Central Minnesota

CITY           SKY/WX    TMP DP  RH WIND       PRES   REMARKS
ST CLOUD       CLEAR     82  72  71 SE8       29.88S
SAUK CENTRE    FAIR     N/A N/A N/A SE13      29.86F
PAYNESVILLE    CLEAR     79  71  77 E9        29.87S
AITKIN         CLEAR     81  70  69 SE7       29.89S
PINE RIVER     PTCLDY    81  72  74 SE12      29.91S
BRAINERD       CLEAR     80  70  71 SE6       29.88S
STAPLES        PTCLDY    82  70  65 S13       29.87R
LONG PRAIRIE   FAIR      79  72  78 E8        29.88S
LITTLE FALLS   CLEAR     81  68  65 SE12      29.88S
LITCHFIELD     CLEAR     82  75  78 SE9       29.87S
BUFFALO        PTCLDY    82  71  69 E7        29.89S
MAPLE LAKE     CLEAR     82  75  78 SE5       29.89S
$$
MNZ037-044-045-052-053-280200-
   East Central Minnesota

CITY           SKY/WX    TMP DP  RH WIND       PRES   REMARKS
PRINCETON      CLEAR     82  72  69 E7        29.90R
MORA           CLEAR     79  68  69 SE6       29.92S
CAMBRIDGE      CLEAR     82  70  65 SE8       29.89S
RUSH CITY      PTCLDY    80  70  70 SE8       29.92R
MOOSE LAKE     PTCLDY    79  68  69 SE3       29.90S
HINCKLEY       FAIR      81  72  74 SE6       29.92S
CLOQUET        PTCLDY    81  64  57 SE5       29.94S
MCGREGOR       CLEAR     79  68  69 SE7       29.91S
$$
MNZ071>073-080-081-089-090-097-098-280200-
   Southwest Minnesota

CITY           SKY/WX    TMP DP  RH WIND       PRES   REMARKS
MONTEVIDEO     PTCLDY    82  73  74 S9        29.84R
GRANITE FALLS  CLEAR     81  71  71 SE8       29.84S
CANBY          CLEAR     81  70  68 SE10      29.81S
MARSHALL       CLEAR     82  68  61 SE13      29.83F
REDWOOD FALLS  CLEAR     81  72  74 SE10      29.83F
OLIVIA         PTCLDY    77  70  78 SE12      29.84S
PIPESTONE      CLEAR     81  72  74 SE9       29.83S
WINDOM         CLEAR     81  70  69 SE9       29.86S
WORTHINGTON    CLEAR     81  70  69 S10       29.85S
JACKSON        PTCLDY    79  72  78 SE13      29.88S
TRACY          CLEAR     82  73  74 SE8       29.84S
SLAYTON        CLEAR     80  73  80 CALM      29.85F
$$
MNZ065>067-074>077-082>085-091>093-280200-
   South Central Minnesota

CITY           SKY/WX    TMP DP  RH WIND       PRES   REMARKS
MANKATO        CLEAR     81  72  74 SE13      29.88R
NEW ULM        CLEAR     81  72  74 SE8       29.86S
ST JAMES       CLEAR     81  70  69 SE10      29.87S
FAIRMONT       CLEAR     79  64  61 SE14      29.88S
GLENCOE        CLEAR     82  75  77 SE9       29.87S
FARIBAULT      CLEAR     81  72  74 SE10G16   29.90F
OWATONNA       CLEAR     81  72  74 SE9       29.91R
WASECA         CLEAR     79  70  73 SE9       29.92R
ALBERT LEA     CLEAR     79  72  78 SE12      29.92S
$$
MNZ078>079-086>088-094>096-280200-
   Southeast Minnesota

CITY           SKY/WX    TMP DP  RH WIND       PRES   REMARKS
ROCHESTER      PTCLDY    78  71  79 SE12      29.94F
RED WING       CLEAR     82  72  69 SE7       29.90S
STANTON        CLEAR     82  71  69 SE7       29.89S
DODGE CENTER   CLEAR     79  72  78 SE7       29.93S
WINONA         MOCLDY    81  70  69 SE7       29.93S
AUSTIN         PTCLDY    79  72  78 S7        29.94R
PRESTON        MOCLDY    77  69  76 SE8       29.96S
$$
ABBREVIATIONS USED IN REMARKS
   TC - TEMPERATURES IN CELSIUS
  WCI - WIND CHILL INDEX
   HX - HEAT INDEX
  VSB - VISIBILITY
$$



USA.gov is the U.S. government's official web portal to all federal, state and local government web resources and services.